GW2349 Weather Reports


Display with metric or nautical units.
time (UTC)temp
F
wind
direction
speed
MPH
gust
MPH
rain 1hr
in
rain 24hr
in
rain mn
in
humidity
%
barometer
mb
20260506163541 39 0 0.0 0.0 0.06 0.07 0.07 76 1009.2
20260506163051 39 0 0.0 0.0 0.07 0.07 0.07 75 1009.0
20260506162541 39 0 0.0 0.0 0.07 0.07 0.07 75 1009.1
20260506162041 39 0 0.0 0.0 0.07 0.07 0.07 75 1009.1
20260506161551 40 0 0.0 0.0 0.06 0.06 0.06 74 1009.2
20260506161041 40 0 0.0 0.0 0.06 0.06 0.06 74 1009.1
20260506160541 40 0 0.0 6.0 0.06 0.06 0.06 74 1009.1
20260506160055 40 0 0.0 6.0 0.05 0.05 0.05 73 1009.1
20260506155542 40 20 1.0 6.0 0.03 0.03 0.03 73 1009.1
20260506155044 40 342 2.0 5.0 0.03 0.03 0.03 73 1009.1
20260506154554 41 360 1.0 6.0 0.02 0.02 0.02 73 1009.0
20260506154046 41 352 3.0 10.0 0.01 0.01 0.01 73 1009.0
20260506153543 41 347 2.0 10.0 0.00 0.00 0.00 73 1008.9
20260506153053 41 11 6.0 10.0 0.00 0.00 0.00 73 1009.0
20260506152541 41 11 3.0 9.0 0.00 0.00 0.00 72 1009.0
20260506152043 41 280 1.0 7.0 0.00 0.00 0.00 72 1008.8
20260506151603 41 266 1.0 6.0 0.00 0.00 0.00 71 1008.8
20260506151041 41 217 1.0 4.0 0.00 0.00 0.00 71 1008.7
20260506150542 42 219 2.0 9.0 0.00 0.00 0.00 71 1008.8
20260506150047 42 256 4.0 12.0 0.00 0.00 0.00 70 1008.8
20260506145540 42 279 3.0 14.0 0.00 0.00 0.00 70 1008.9
20260506145042 43 175 6.0 14.0 0.00 0.00 0.00 69 1008.9
20260506144602 43 228 3.0 9.0 0.00 0.00 0.00 68 1008.8
20260506144043 43 258 4.0 10.0 0.00 0.00 0.00 67 1008.6
20260506143543 43 150 4.0 10.0 0.00 0.00 0.00 67 1008.7
20260506143054 44 193 5.0 11.0 0.00 0.00 0.00 67 1008.6
20260506142542 44 261 4.0 12.0 0.00 0.00 0.00 66 1008.7
20260506142041 44 198 6.0 13.0 0.00 0.00 0.00 66 1008.7
20260506141553 44 239 4.0 13.0 0.00 0.00 0.00 66 1008.6
20260506141042 44 250 6.0 13.0 0.00 0.00 0.00 66 1008.7
20260506140544 45 205 5.0 12.0 0.00 0.00 0.00 65 1008.7
20260506140113 45 187 5.0 15.0 0.00 0.00 0.00 64 1008.7
20260506135542 45 221 6.0 15.0 0.00 0.00 0.00 64 1008.7
20260506135044 45 196 4.0 13.0 0.00 0.00 0.00 64 1008.7
20260506134545 45 223 7.0 13.0 0.00 0.00 0.00 63 1008.5
20260506134041 45 250 6.0 15.0 0.00 0.00 0.00 62 1008.4
20260506133541 45 242 6.0 16.0 0.00 0.00 0.00 62 1008.3
20260506133053 45 204 7.0 16.0 0.00 0.00 0.00 60 1008.3
20260506132541 45 193 4.0 11.0 0.00 0.00 0.00 64 1008.2
20260506132043 45 258 6.0 10.0 0.00 0.00 0.00 63 1008.2
20260506131552 45 227 5.0 10.0 0.00 0.00 0.00 63 1008.1
20260506131042 45 256 3.0 10.0 0.00 0.00 0.00 62 1008.1
20260506130542 45 210 4.0 9.0 0.00 0.00 0.00 61 1008.2
20260506130105 45 234 3.0 9.0 0.00 0.00 0.00 63 1008.2
20260506125541 46 227 4.0 11.0 0.00 0.00 0.00 62 1008.2
20260506125041 46 239 6.0 11.0 0.00 0.00 0.00 60 1008.2
20260506124550 46 248 4.0 9.0 0.00 0.00 0.00 59 1008.2
20260506124042 46 263 4.0 9.0 0.00 0.00 0.00 61 1008.1
20260506123541 47 259 5.0 9.0 0.00 0.00 0.00 60 1008.1
20260506123049 47 290 5.0 9.0 0.00 0.00 0.00 59 1008.0
20260506122541 48 230 3.0 9.0 0.00 0.00 0.00 58 1008.0
20260506122042 48 236 5.0 9.0 0.00 0.00 0.00 57 1008.0
20260506121551 49 243 4.0 9.0 0.00 0.00 0.00 56 1008.0
20260506121042 49 329 3.0 9.0 0.00 0.00 0.00 56 1008.0
20260506120542 49 323 4.0 9.0 0.00 0.00 0.00 57 1008.0
20260506120053 49 333 2.0 8.0 0.00 0.00 0.00 56 1007.9
20260506115542 49 252 4.0 8.0 0.00 0.02 0.00 54 1007.9
20260506115043 49 217 2.0 9.0 0.00 0.02 0.00 51 1007.8
20260506114550 49 224 2.0 10.0 0.00 0.02 0.00 51 1007.8
20260506114042 49 122 3.0 11.0 0.00 0.02 0.00 50 1007.8
20260506113542 49 94 4.0 11.0 0.00 0.02 0.00 48 1007.7
20260506113054 49 143 6.0 11.0 0.00 0.02 0.00 47 1007.7
20260506112542 50 130 2.0 7.0 0.00 0.02 0.00 52 1007.6
20260506112041 49 122 3.0 10.0 0.00 0.02 0.00 50 1007.6
20260506111553 49 144 1.0 10.0 0.00 0.02 0.00 53 1007.6
20260506111043 49 215 3.0 10.0 0.00 0.02 0.00 53 1007.5
20260506110542 49 178 3.0 10.0 0.00 0.02 0.00 53 1007.5
20260506110100 48 136 1.0 10.0 0.00 0.02 0.00 54 1007.3
20260506105541 47 15 6.0 10.0 0.00 0.02 0.00 53 1007.3
20260506105041 47 147 3.0 9.0 0.00 0.02 0.00 53 1007.3
20260506104544 47 150 3.0 12.0 0.00 0.02 0.00 54 1007.3
20260506104041 47 284 4.0 12.0 0.00 0.02 0.00 57 1007.3
20260506103542 47 234 2.0 10.0 0.00 0.02 0.00 57 1007.1
20260506103051 46 0 1.0 12.0 0.00 0.02 0.00 55 1007.1
20260506102541 47 184 4.0 12.0 0.00 0.02 0.00 55 1007.1
20260506102041 47 175 3.0 8.0 0.00 0.02 0.00 58 1007.0
20260506101556 47 247 4.0 10.0 0.00 0.02 0.00 59 1007.0
20260506101041 46 261 2.0 10.0 0.00 0.02 0.00 61 1007.0
20260506100541 46 240 2.0 10.0 0.00 0.02 0.00 63 1007.0
20260506100047 46 315 3.0 10.0 0.00 0.02 0.00 62 1007.0
20260506095545 46 274 4.0 9.0 0.00 0.03 0.00 61 1006.9
20260506095042 46 275 3.0 9.0 0.00 0.03 0.00 60 1006.9
20260506094557 46 281 4.0 9.0 0.00 0.03 0.00 58 1006.8
20260506094041 46 235 3.0 9.0 0.00 0.03 0.00 59 1006.9
20260506093545 46 252 4.0 9.0 0.00 0.03 0.00 60 1006.8
20260506093050 45 281 4.0 8.0 0.00 0.03 0.00 59 1006.9
20260506092542 45 229 3.0 9.0 0.00 0.03 0.00 59 1006.8
20260506092042 45 254 3.0 9.0 0.00 0.03 0.00 59 1006.8
20260506091548 45 262 2.0 7.0 0.00 0.03 0.00 59 1006.8
20260506091045 45 163 5.0 8.0 0.00 0.03 0.00 57 1006.7
20260506090544 46 147 4.0 8.0 0.00 0.03 0.00 58 1006.7
20260506090049 45 138 2.0 8.0 0.00 0.03 0.00 60 1006.7
20260506085540 45 103 4.0 8.0 0.00 0.06 0.00 59 1006.7
20260506085043 45 206 3.0 7.0 0.00 0.06 0.00 60 1006.8
20260506084551 45 207 3.0 9.0 0.00 0.06 0.00 61 1006.7
20260506084041 45 167 3.0 9.0 0.00 0.06 0.00 60 1006.8
20260506083542 45 145 2.0 8.0 0.00 0.06 0.00 62 1006.7
20260506083051 44 113 4.0 8.0 0.00 0.06 0.00 62 1006.7
20260506082542 44 123 2.0 8.0 0.00 0.06 0.00 62 1006.7
20260506082044 44 173 3.0 6.0 0.00 0.06 0.00 62 1006.6
20260506081549 44 0 1.0 8.0 0.00 0.06 0.00 63 1006.6
20260506081041 44 178 4.0 8.0 0.00 0.06 0.00 63 1006.6
20260506080541 43 124 2.0 7.0 0.00 0.06 0.00 65 1006.5
20260506073050 40 125 2.0 7.0 0.00 0.06 0.00 67 1006.2
20260506072542 40 124 3.0 7.0 0.00 0.06 0.00 66 1006.2
20260506072045 40 0 0.0 3.0 0.00 0.06 0.00 68 1006.1
20260506071606 40 140 1.0 5.0 0.00 0.06 0.00 67 1006.2
20260506071041 40 139 2.0 7.0 0.00 0.06 0.00 66 1006.1
20260506070541 40 146 1.0 7.0 0.00 0.06 0.00 67 1006.0
20260506062041 39 145 1.0 3.0 0.00 0.06 0.00 72 1005.7
20260506061549 39 148 1.0 5.0 0.00 0.06 0.00 72 1005.7
20260506061041 39 148 2.0 5.0 0.00 0.06 0.00 72 1005.7
20260506060540 39 177 1.0 4.0 0.00 0.06 0.00 74 1005.6
20260506051043 38 0 0.0 3.0 0.00 0.07 0.00 80 1005.2
20260506050542 37 0 0.0 0.0 0.00 0.07 0.00 80 1005.2
20260506045041 37 0 0.0 0.0 0.00 0.07 0.00 80 1005.0
20260506044555 37 0 0.0 0.0 0.00 0.07 0.00 80 1005.0
20260506044040 37 0 0.0 0.0 0.00 0.07 0.00 80 1004.9
20260506043545 37 0 0.0 0.0 0.00 0.07 0.00 80 1005.0
20260506043053 37 0 0.0 0.0 0.00 0.07 0.00 80 1005.0
20260506042543 37 0 0.0 0.0 0.00 0.07 0.00 81 1004.9
20260506042041 37 0 0.0 0.0 0.00 0.07 0.00 81 1004.9
20260506041600 37 0 0.0 0.0 0.00 0.07 0.00 80 1004.9
20260506041041 37 0 0.0 2.0 0.00 0.07 0.00 81 1004.9
20260506040542 36 0 0.0 2.0 0.00 0.07 0.00 81 1004.8
20260506040050 36 352 1.0 2.0 0.00 0.07 0.00 81 1004.8
20260506035544 36 0 0.0 1.0 0.00 0.07 0.00 82 1004.7
20260506035045 36 0 0.0 2.0 0.00 0.07 0.00 81 1004.6
20260506034547 36 0 0.0 2.0 0.00 0.07 0.00 81 1004.7
20260506034041 36 0 1.0 2.0 0.00 0.07 0.00 81 1004.7
20260506033544 36 0 0.0 0.0 0.00 0.07 0.00 81 1004.7
20260506033058 36 0 0.0 0.0 0.00 0.07 0.00 81 1004.5
20260506032542 36 0 0.0 0.0 0.00 0.07 0.00 80 1004.5
20260506032041 36 0 0.0 0.0 0.00 0.07 0.00 80 1004.6
20260506031554 36 0 0.0 0.0 0.00 0.07 0.00 80 1004.6
20260506031041 36 0 0.0 0.0 0.00 0.07 0.00 81 1004.5
20260506030541 36 0 0.0 0.0 0.00 0.07 0.00 81 1004.5
20260506030052 36 0 0.0 0.0 0.00 0.07 0.00 81 1004.5
20260506025543 36 0 0.0 0.0 0.00 0.07 0.00 81 1004.4
20260506025040 36 0 0.0 0.0 0.00 0.07 0.00 80 1004.4
20260506024552 36 0 0.0 0.0 0.00 0.07 0.00 80 1004.4
20260506024040 36 0 0.0 0.0 0.00 0.07 0.00 80 1004.3
20260506023542 35 0 0.0 0.0 0.00 0.07 0.00 79 1004.4
20260506023046 35 0 0.0 0.0 0.00 0.07 0.00 80 1004.3
20260506022541 35 0 0.0 0.0 0.00 0.07 0.00 79 1004.2
20260506022041 35 0 0.0 0.0 0.00 0.07 0.00 79 1004.3
20260506021545 35 0 0.0 0.0 0.00 0.07 0.00 79 1004.3
20260506021041 35 0 0.0 0.0 0.00 0.07 0.00 79 1004.2
20260506020540 35 0 0.0 0.0 0.00 0.07 0.00 78 1004.1
20260506020049 35 0 0.0 0.0 0.00 0.07 0.00 78 1004.0
20260506015541 35 0 0.0 0.0 0.00 0.07 0.00 78 1004.0
20260506015041 35 0 0.0 0.0 0.00 0.07 0.00 78 1004.0
20260506014555 36 0 0.0 0.0 0.00 0.07 0.00 78 1003.9
20260506014040 36 0 0.0 0.0 0.00 0.07 0.00 78 1003.9
20260506013542 36 0 0.0 0.0 0.00 0.07 0.00 78 1003.9
20260506013050 36 0 0.0 0.0 0.00 0.07 0.00 78 1003.8
20260506012544 36 0 0.0 0.0 0.00 0.07 0.00 78 1003.8
20260506012044 36 0 0.0 0.0 0.00 0.07 0.00 78 1003.8
20260506011545 36 0 0.0 0.0 0.00 0.07 0.00 77 1003.7
20260506011042 36 0 0.0 0.0 0.00 0.07 0.00 77 1003.6
20260506010545 36 0 0.0 0.0 0.00 0.07 0.00 77 1003.5
20260506010048 36 0 0.0 0.0 0.00 0.07 0.00 76 1003.5
20260506005543 37 0 0.0 0.0 0.00 0.07 0.00 76 1003.5
20260506005043 37 0 0.0 0.0 0.00 0.07 0.00 76 1003.4
20260506004555 37 0 0.0 0.0 0.00 0.07 0.00 76 1003.3
20260506004043 37 0 0.0 0.0 0.00 0.07 0.00 76 1003.4
20260506003543 37 0 0.0 0.0 0.00 0.07 0.00 76 1003.2
20260506003050 38 0 0.0 0.0 0.00 0.07 0.00 76 1003.3
20260506002547 38 0 0.0 0.0 0.00 0.07 0.00 76 1003.3
20260506002042 38 0 0.0 0.0 0.00 0.07 0.00 76 1003.2
20260506001608 38 0 0.0 0.0 0.00 0.07 0.00 76 1003.2
20260506001043 38 0 0.0 0.0 0.00 0.07 0.00 76 1003.2
20260506000543 38 0 0.0 0.0 0.00 0.07 0.00 76 1003.2
20260506000049 39 0 0.0 0.0 0.00 0.07 0.00 76 1003.1
20260505235543 39 0 0.0 0.0 0.00 0.07 0.00 76 1003.2
20260505235044 39 0 0.0 0.0 0.00 0.07 0.00 76 1003.2
20260505234553 39 0 0.0 0.0 0.00 0.07 0.00 76 1003.1
20260505234043 39 0 0.0 0.0 0.00 0.07 0.00 76 1003.1
20260505233546 39 0 0.0 1.0 0.00 0.07 0.00 76 1003.0
20260505233051 39 0 0.0 3.0 0.00 0.07 0.00 76 1003.0
20260505232543 39 0 0.0 4.0 0.00 0.07 0.00 76 1003.1
20260505232043 39 339 2.0 5.0 0.00 0.07 0.00 76 1003.0
20260505231556 39 321 2.0 6.0 0.00 0.07 0.00 76 1002.9
20260505231046 39 326 2.0 6.0 0.00 0.07 0.00 76 1002.8
20260505230542 39 323 2.0 6.0 0.00 0.07 0.00 76 1002.9
20260505230056 40 329 1.0 4.0 0.00 0.07 0.00 76 1002.9
20260505225543 40 352 0.0 5.0 0.00 0.07 0.00 76 1002.9
20260505225043 40 11 2.0 9.0 0.00 0.07 0.00 75 1002.9
20260505224552 40 5 2.0 9.0 0.00 0.07 0.00 76 1002.9
20260505224042 40 352 1.0 8.0 0.00 0.07 0.00 75 1002.9
20260505223542 40 331 3.0 8.0 0.00 0.07 0.00 75 1002.9
20260505223057 40 352 2.0 7.0 0.00 0.07 0.00 75 1002.8
20260505222542 40 352 2.0 7.0 0.00 0.07 0.00 75 1002.9
20260505222042 40 352 2.0 8.0 0.00 0.07 0.00 75 1002.8
20260505221555 40 269 2.0 8.0 0.00 0.07 0.00 75 1002.8
20260505221044 40 344 3.0 8.0 0.00 0.07 0.00 75 1002.7
20260505220545 40 360 2.0 6.0 0.00 0.07 0.00 74 1002.8
20260505220051 40 348 2.0 6.0 0.00 0.07 0.00 74 1002.7
20260505215543 40 352 2.0 6.0 0.00 0.07 0.07 74 1002.7
20260505215043 40 329 2.0 6.0 0.00 0.07 0.07 73 1002.7
20260505214601 40 335 1.0 4.0 0.00 0.07 0.07 73 1002.6
20260505214043 40 9 1.0 4.0 0.00 0.07 0.07 73 1002.5
20260505213542 40 331 1.0 8.0 0.00 0.07 0.07 73 1002.5
20260505213056 40 317 1.0 8.0 0.00 0.07 0.07 73 1002.6
20260505212542 40 9 2.0 4.0 0.00 0.07 0.07 73 1002.6
20260505212043 40 282 2.0 5.0 0.00 0.07 0.07 72 1002.5
20260505211548 40 330 1.0 6.0 0.00 0.07 0.07 72 1002.5
20260505211044 40 5 2.0 6.0 0.00 0.07 0.07 72 1002.4
20260505210542 40 0 1.0 5.0 0.00 0.07 0.07 72 1002.5
20260505210056 40 315 2.0 5.0 0.00 0.07 0.07 71 1002.5
20260505205542 40 0 0.0 0.0 0.00 0.07 0.07 71 1002.4
20260505205044 40 0 0.0 0.0 0.00 0.07 0.07 71 1002.3
20260505204549 40 0 0.0 0.0 0.00 0.07 0.07 71 1002.3
20260505204043 40 0 0.0 0.0 0.00 0.07 0.07 71 1002.3
20260505203543 40 0 0.0 0.0 0.00 0.07 0.07 71 1002.3
20260505203052 40 0 0.0 0.0 0.00 0.07 0.07 70 1002.2
20260505202542 41 0 0.0 0.0 0.00 0.07 0.07 70 1002.2
20260505202047 41 0 0.0 0.0 0.00 0.07 0.07 70 1002.2
20260505201605 41 0 0.0 0.0 0.00 0.07 0.07 69 1002.2
20260505201042 41 0 0.0 0.0 0.00 0.07 0.07 69 1002.2
20260505200543 41 0 0.0 0.0 0.00 0.07 0.07 69 1002.1
20260505200056 41 0 0.0 0.0 0.00 0.07 0.07 69 1002.2
20260505195542 41 0 0.0 2.0 0.00 0.07 0.07 68 1002.1
20260505195046 41 0 0.0 2.0 0.00 0.07 0.07 68 1002.1
20260505194554 42 0 0.0 2.0 0.00 0.07 0.07 68 1002.1
20260505194043 42 360 0.0 3.0 0.00 0.07 0.07 68 1002.1
20260505193545 42 360 0.0 4.0 0.00 0.07 0.07 68 1002.1
20260505193051 42 360 1.0 4.0 0.00 0.07 0.07 68 1002.0
20260505192546 42 351 2.0 4.0 0.00 0.07 0.07 68 1002.1
20260505192044 42 352 0.0 4.0 0.00 0.07 0.07 68 1002.1
20260505191556 42 323 1.0 4.0 0.00 0.07 0.07 67 1002.1
20260505191043 42 337 1.0 5.0 0.00 0.07 0.07 67 1002.1
20260505190542 42 338 2.0 5.0 0.00 0.07 0.07 66 1002.1
20260505190112 42 352 2.0 5.0 0.00 0.07 0.07 66 1002.1
20260505185542 42 344 2.0 5.0 0.00 0.07 0.07 66 1002.1
20260505185044 42 304 0.0 4.0 0.00 0.07 0.07 65 1002.0
20260505184604 42 0 0.0 4.0 0.00 0.07 0.07 65 1001.9
20260505184043 42 332 1.0 2.0 0.00 0.07 0.07 64 1001.9
20260505183544 42 0 0.0 2.0 0.00 0.07 0.07 63 1001.9
20260505183052 42 344 1.0 2.0 0.00 0.07 0.07 62 1001.9
20260505182542 43 0 0.0 0.0 0.00 0.07 0.07 61 1001.9
20260505182042 43 0 0.0 0.0 0.00 0.07 0.07 62 1001.8
20260505181549 43 0 0.0 0.0 0.00 0.07 0.07 63 1001.8
20260505181046 43 0 0.0 0.0 0.00 0.07 0.07 64 1001.8
20260505180541 43 0 0.0 1.0 0.00 0.07 0.07 64 1001.6
20260505180054 43 0 0.0 4.0 0.00 0.07 0.07 63 1001.7
20260505175542 43 0 0.0 4.0 0.00 0.07 0.07 63 1001.6
20260505175042 43 344 1.0 4.0 0.00 0.07 0.07 63 1001.6
20260505174550 43 335 0.0 0.0 0.00 0.07 0.07 62 1001.6
20260505174043 43 0 0.0 0.0 0.00 0.07 0.07 62 1001.5
20260505173543 42 0 0.0 0.0 0.00 0.07 0.07 60 1001.4
20260505173049 42 0 0.0 0.0 0.00 0.07 0.07 60 1001.5
20260505172542 42 0 0.0 3.0 0.00 0.07 0.07 60 1001.4
20260505172042 42 0 0.0 3.0 0.00 0.07 0.07 59 1001.4
20260505171550 42 191 1.0 3.0 0.00 0.07 0.07 59 1001.4
20260505171043 43 187 0.0 3.0 0.00 0.07 0.07 59 1001.5
20260505170542 42 0 1.0 4.0 0.00 0.07 0.07 59 1001.4
20260505170057 43 185 1.0 4.0 0.00 0.07 0.07 58 1001.5
20260505165542 43 152 1.0 5.0 0.00 0.07 0.07 57 1001.5
20260505165042 43 0 0.0 6.0 0.00 0.07 0.07 56 1001.4
20260505164549 43 152 2.0 7.0 0.00 0.07 0.07 56 1001.3
20260505164042 43 114 2.0 7.0 0.00 0.07 0.07 56 1001.3